Estación Meteorológica Peña el Pijo (Robertgarden) [ 11/16/19 03:06:02 CET ]

Fecha Hora Presion(HPa) Temp (°C) Humedad % Rocio (°C) Viento ( m/s) Direccion Lluvia 1Hora(mm) Lluvia 24H(mm) LLuvia Total(mm)
2019-Jun-20 01:09:08 1008.700 - - - - WSW     330.48
2019-Jun-20 02:09:14 1008.300 - - - - WSW     330.48
2019-Jun-20 03:11:52 1008.000 - - - - WSW     330.48
2019-Jun-20 04:09:40 1008.000 - - - - WSW     330.48
2019-Jun-20 05:08:49 1007.700 - - - - WSW     330.48
2019-Jun-20 06:08:50 1007.700 - - - - WSW     330.48
2019-Jun-20 07:09:20 1008.000 - - - - WSW     330.48
2019-Jun-20 08:09:14 1007.800 - - - - WSW     330.48
2019-Jun-20 09:09:36 1007.700 - - - - WSW     330.48
2019-Jun-20 10:09:03 1007.300 - - - - WSW     330.48
2019-Jun-20 11:09:12 1007.200 - - - - WSW     330.48
2019-Jun-20 12:09:27 1006.700 - - - - WSW     330.48
2019-Jun-20 13:09:22 1006.300 - - - - WSW     330.48
2019-Jun-20 14:09:03 1006.100 - - - - WSW     330.48
2019-Jun-20 15:09:07 1005.600 - - - - WSW     330.48
2019-Jun-20 16:09:41 1005.200 - - - - WSW     330.48
2019-Jun-20 17:09:21 1004.500 - - - - WSW     330.48
2019-Jun-20 18:09:23 1004.600 - - - - WSW     330.48
2019-Jun-20 19:09:15 1004.900 - - - - WSW     330.48
2019-Jun-20 20:09:15 1005.400 - - - - WSW     330.48
2019-Jun-20 21:09:03 1005.800 - - - - WSW     330.48
2019-Jun-20 22:09:01 1006.500 - - - - WSW     330.48
2019-Jun-20 23:09:01 1007.200 - - - - WSW     330.48

Temperatura Máxima:    Temperatura Mínima:
Presión Máxima:1008.700 Hpa    Presión Mínima:1004.500 Hpa


Volver